CW9792 Weather Reports


time (UTC)temp
C
wind
direction
speed
KPH
gust
KPH
rain 1hr
cm
rain 24hr
cm
rain mn
cm
humidity
%
barometer
mb
20260506185028 15 355 0.0 1.6 0.00 0.99 0.66 40 1013.5
20260506184527 15 360 0.0 0.0 0.00 0.99 0.66 45 1013.3
20260506184029 15 5 0.0 0.0 0.00 0.99 0.66 42 1013.5
20260506183526 15 344 0.0 0.0 0.00 0.99 0.66 42 1013.3
20260506183025 15 344 0.0 0.0 0.00 0.99 0.66 43 1013.1
20260506182526 15 298 0.0 0.0 0.00 0.99 0.66 47 1013.1
20260506182028 14 355 0.0 0.0 0.00 0.99 0.66 44 1013.2
20260506181524 14 338 0.0 0.0 0.00 0.99 0.66 45 1013.2
20260506181026 15 350 0.0 0.0 0.00 0.99 0.66 45 1013.3
20260506180525 15 284 0.0 0.0 0.00 0.99 0.66 45 1013.3
20260506180024 14 5 0.0 0.0 0.00 0.99 0.66 45 1013.0
20260506175526 15 26 0.0 0.0 0.00 0.99 0.66 47 1013.4
20260506175023 14 21 0.0 0.0 0.00 0.99 0.66 47 1013.4
20260506174523 14 10 0.0 0.0 0.00 0.99 0.66 45 1013.5
20260506174026 15 34 0.0 1.6 0.00 0.99 0.66 47 1013.5
20260506173525 15 348 0.0 1.6 0.00 0.99 0.66 50 1013.7
20260506173022 14 5 0.0 0.0 0.00 0.99 0.66 48 1013.7
20260506172521 13 24 0.0 0.0 0.00 0.99 0.66 52 1013.5
20260506172024 13 360 0.0 0.0 0.00 0.99 0.66 49 1013.4
20260506171522 13 346 0.0 0.0 0.00 0.99 0.66 48 1013.4
20260506171022 14 360 0.0 0.0 0.00 0.99 0.66 50 1013.3
20260506170521 13 28 0.0 1.6 0.00 0.99 0.66 48 1013.4
20260506170023 13 36 0.0 0.0 0.00 0.99 0.66 50 1013.5
20260506165523 13 355 0.0 0.0 0.00 0.99 0.66 50 1013.6
20260506165025 13 355 0.0 0.0 0.00 0.99 0.66 48 1013.5
20260506164524 13 5 0.0 1.6 0.00 0.99 0.66 50 1013.6
20260506164023 13 29 0.0 1.6 0.00 0.99 0.66 51 1013.8
20260506163523 13 355 0.0 0.0 0.00 0.99 0.66 51 1013.8
20260506163037 13 31 0.0 1.6 0.00 0.99 0.66 49 1013.8
20260506162524 12 46 0.0 1.6 0.00 0.99 0.66 52 1013.8
20260506162018 12 5 0.0 0.0 0.00 0.99 0.66 50 1013.9
20260506161519 12 19 0.0 0.0 0.00 0.99 0.66 52 1013.9
20260506161017 12 14 0.0 0.0 0.00 0.99 0.66 52 1013.9
20260506160520 12 360 0.0 0.0 0.00 0.99 0.66 51 1014.1
20260506160022 12 23 0.0 0.0 0.00 0.99 0.66 54 1014.2
20260506155517 12 360 0.0 1.6 0.00 0.99 0.66 52 1014.2
20260506155016 12 18 0.0 1.6 0.00 0.99 0.66 52 1014.1
20260506154517 12 5 0.0 1.6 0.00 0.99 0.66 53 1013.8
20260506154019 12 348 0.0 1.6 0.00 0.99 0.66 56 1013.7
20260506153514 11 31 0.0 0.0 0.00 0.99 0.66 55 1013.6
20260506153013 11 9 0.0 0.0 0.00 0.99 0.66 54 1013.7
20260506152513 11 10 0.0 0.0 0.00 0.99 0.66 56 1013.7
20260506152013 11 39 0.0 0.0 0.00 0.99 0.66 58 1013.7
20260506151511 11 15 0.0 1.6 0.00 0.99 0.66 57 1013.4
20260506151010 11 25 0.0 1.6 0.00 0.99 0.66 57 1013.3
20260506150510 10 5 0.0 0.0 0.00 0.99 0.66 57 1013.2
20260506150008 10 31 0.0 0.0 0.00 0.99 0.66 58 1013.2
20260506145508 10 5 0.0 0.0 0.00 0.99 0.66 59 1013.0
20260506145009 10 5 0.0 0.0 0.00 0.99 0.66 59 1013.1
20260506144508 10 9 0.0 1.6 0.00 0.99 0.66 60 1012.9
20260506144006 10 30 0.0 1.6 0.00 0.99 0.66 60 1012.8
20260506143506 10 11 0.0 0.0 0.00 0.99 0.66 60 1012.9
20260506143014 10 5 0.0 0.0 0.00 0.99 0.66 60 1013.0
20260506142506 9 355 0.0 0.0 0.00 0.99 0.66 61 1013.1
20260506142005 9 360 0.0 1.6 0.00 0.99 0.66 62 1013.1
20260506141506 9 9 0.0 0.0 0.00 0.99 0.66 62 1012.9
20260506141006 8 23 0.0 0.0 0.00 0.99 0.66 62 1012.9
20260506140507 8 347 0.0 0.0 0.00 0.99 0.66 62 1013.0
20260506140005 8 14 0.0 0.0 0.00 0.99 0.66 62 1013.1
20260506135504 8 16 0.0 0.0 0.00 0.99 0.66 62 1012.9
20260506135003 8 29 0.0 0.0 0.00 0.99 0.66 62 1012.8
20260506134504 8 20 0.0 0.0 0.00 0.99 0.66 63 1012.8
20260506134002 8 5 0.0 0.0 0.00 0.99 0.66 63 1012.7
20260506133503 8 11 0.0 0.0 0.00 0.99 0.66 63 1012.9
20260506133002 7 355 0.0 0.0 0.00 0.99 0.66 63 1012.9
20260506132503 7 13 0.0 0.0 0.00 0.99 0.66 63 1012.6
20260506132100 7 22 0.0 0.0 0.00 0.99 0.66 63 1012.6
20260506131600 7 17 0.0 1.6 0.00 0.99 0.66 64 1012.4
20260506131059 7 23 0.0 1.6 0.00 0.99 0.66 63 1012.2
20260506130558 7 22 0.0 0.0 0.00 0.99 0.66 64 1012.0
20260506125558 7 17 0.0 1.6 0.00 0.99 0.66 64 1011.9
20260506125057 7 14 0.0 1.6 0.00 0.99 0.66 64 1012.2
20260506124600 7 13 0.0 0.0 0.00 0.99 0.66 64 1012.3
20260506124058 7 11 0.0 0.0 0.00 0.99 0.66 64 1012.0
20260506123557 7 11 0.0 0.0 0.00 0.99 0.66 64 1012.0
20260506123056 7 9 0.0 0.0 0.00 0.99 0.66 64 1012.0
20260506122556 7 19 0.0 0.0 0.00 0.99 0.66 64 1011.9
20260506122054 7 18 0.0 0.0 0.00 0.99 0.66 64 1012.1
20260506121604 7 13 0.0 0.0 0.00 0.99 0.66 64 1012.1
20260506121053 7 9 0.0 0.0 0.00 0.99 0.66 64 1011.9
20260506120553 7 9 0.0 0.0 0.00 0.99 0.66 64 1011.8
20260506120152 7 11 0.0 0.0 0.00 0.99 0.66 64 1011.7
20260506115552 7 360 0.0 0.0 0.00 0.99 0.66 64 1011.5
20260506115051 7 15 0.0 0.0 0.00 0.99 0.66 64 1011.4
20260506114606 7 11 0.0 0.0 0.00 0.99 0.66 64 1011.6
20260506114050 7 360 0.0 0.0 0.00 0.99 0.66 64 1011.7
20260506113549 7 9 0.0 0.0 0.00 0.99 0.66 64 1011.5
20260506113047 7 11 0.0 0.0 0.00 0.99 0.66 64 1011.2
20260506112546 7 5 0.0 0.0 0.00 0.99 0.66 64 1010.8
20260506112046 7 13 0.0 0.0 0.00 0.99 0.66 64 1011.0
20260506111551 7 5 0.0 0.0 0.00 0.99 0.66 64 1010.8
20260506111045 7 5 0.0 0.0 0.00 0.99 0.66 64 1010.9
20260506110545 7 349 0.0 0.0 0.00 0.99 0.66 64 1011.0
20260506110043 7 5 0.0 0.0 0.00 0.99 0.66 64 1010.8
20260506105544 7 5 0.0 0.0 0.00 0.99 0.66 65 1010.5
20260506105041 7 15 0.0 0.0 0.00 0.99 0.66 65 1010.3
20260506104543 8 355 0.0 0.0 0.00 0.99 0.66 65 1010.3
20260506104039 8 14 0.0 0.0 0.00 0.99 0.66 65 1010.1
20260506103538 8 360 0.0 0.0 0.00 0.99 0.66 66 1010.2
20260506103037 8 5 0.0 0.0 0.00 0.99 0.66 66 1009.9
20260506102537 8 350 0.0 0.0 0.00 0.99 0.66 66 1009.9
20260506102036 8 9 0.0 0.0 0.00 0.99 0.66 67 1010.0
20260506101537 8 360 0.0 0.0 0.00 0.99 0.66 68 1009.9
20260506101034 8 5 0.0 0.0 0.00 0.99 0.66 69 1009.6
20260506100533 8 19 0.0 0.0 0.00 0.99 0.66 71 1009.4
20260506100038 8 360 0.0 0.0 0.03 0.99 0.66 71 1009.7
20260506095533 8 355 0.0 0.0 0.03 0.99 0.66 72 1009.5
20260506095032 8 355 0.0 0.0 0.03 0.99 0.66 72 1009.5
20260506094531 8 5 0.0 0.0 0.03 0.99 0.66 72 1009.3
20260506094029 8 17 0.0 0.0 0.03 0.99 0.66 72 1009.0
20260506093532 9 19 0.0 0.0 0.05 0.99 0.66 72 1009.0
20260506093052 9 360 0.0 0.0 0.05 0.99 0.66 72 1008.9
20260506092528 9 25 0.0 0.0 0.05 0.99 0.66 72 1009.0
20260506092028 9 11 0.0 0.0 0.08 0.99 0.66 72 1008.8
20260506091529 9 14 0.0 0.0 0.10 0.99 0.66 72 1008.8
20260506091028 9 5 0.0 0.0 0.10 0.99 0.66 72 1009.0
20260506090527 9 5 0.0 0.0 0.13 0.99 0.66 72 1009.0
20260506090026 9 11 0.0 0.0 0.10 0.97 0.64 72 1009.1
20260506085525 9 5 0.0 0.0 0.10 0.97 0.64 72 1008.8
20260506085025 9 5 0.0 0.0 0.10 0.97 0.64 72 1008.7
20260506084524 9 18 0.0 0.0 0.10 0.97 0.64 72 1008.4
20260506084025 9 13 0.0 0.0 0.10 0.97 0.64 72 1008.8
20260506083523 9 360 0.0 0.0 0.08 0.94 0.61 72 1008.7
20260506083022 9 360 0.0 0.0 0.08 0.94 0.61 72 1008.6
20260506082524 9 32 0.0 0.0 0.05 0.91 0.58 72 1008.5
20260506082022 9 5 0.0 0.0 0.05 0.91 0.58 72 1008.7
20260506081522 9 355 0.0 0.0 0.03 0.89 0.56 72 1008.5
20260506081022 9 5 0.0 0.0 0.03 0.89 0.56 72 1008.3
20260506080521 9 360 0.0 0.0 0.00 0.86 0.53 72 1008.4
20260506073519 9 5 0.0 0.0 0.05 0.86 0.53 72 1007.4
20260506073016 9 355 0.0 0.0 0.05 0.86 0.53 72 1007.3
20260506072517 10 349 0.0 0.0 0.08 0.86 0.53 72 1007.5
20260506072018 10 10 0.0 0.0 0.13 0.86 0.53 72 1007.6
20260506071514 10 350 0.0 0.0 0.13 0.86 0.53 72 1007.5
20260506071012 10 355 0.0 0.0 0.15 0.86 0.53 72 1007.4
20260506070512 10 360 0.0 0.0 0.15 0.86 0.53 72 1007.2
20260506062506 10 10 0.0 0.0 0.13 0.76 0.43 71 1006.9
20260506062008 10 355 0.0 0.0 0.10 0.71 0.41 70 1006.8
20260506061507 10 348 0.0 0.0 0.10 0.71 0.41 70 1006.7
20260506061003 11 360 0.0 0.0 0.08 0.71 0.38 70 1006.6
20260506060503 11 360 0.0 0.0 0.08 0.71 0.38 69 1006.5
20260506051045 14 263 0.0 0.0 0.30 0.64 0.30 72 1005.6
20260506050545 14 263 0.0 1.6 0.30 0.64 0.30 72 1005.7
20260506045042 14 263 0.0 0.0 0.25 0.58 0.25 71 1005.8
20260506044542 14 263 0.0 0.0 0.25 0.58 0.25 71 1005.9
20260506044041 14 263 0.0 0.0 0.25 0.58 0.25 71 1005.9
20260506043541 14 263 0.0 0.0 0.23 0.56 0.23 71 1006.0
20260506043043 14 263 0.0 0.0 0.23 0.56 0.23 71 1006.0
20260506042541 14 263 0.0 0.0 0.18 0.51 0.18 71 1005.9
20260506042039 14 246 0.0 0.0 0.03 0.36 0.03 71 1006.0
20260506041542 14 225 0.0 0.0 0.03 0.33 0.00 71 1005.6
20260506041037 14 197 0.0 0.0 0.03 0.33 0.00 71 1005.4
20260506040541 14 188 0.0 0.0 0.03 0.33 0.00 71 1005.3
20260506040037 14 194 0.0 0.0 0.03 0.33 0.00 70 1005.4
20260506035536 14 173 0.0 0.0 0.03 0.33 0.33 70 1005.5
20260506035036 14 173 0.0 0.0 0.03 0.33 0.33 70 1005.6
20260506034535 14 171 0.0 0.0 0.03 0.33 0.33 70 1005.6
20260506034033 14 175 0.0 0.0 0.03 0.33 0.33 69 1005.7
20260506033533 14 171 0.0 0.0 0.03 0.33 0.33 69 1005.9
20260506033034 14 184 0.0 0.0 0.03 0.33 0.33 69 1005.8
20260506032532 14 185 0.0 0.0 0.08 0.33 0.33 69 1005.9
20260506032033 14 178 0.0 0.0 0.08 0.33 0.33 68 1005.9
20260506031533 14 179 0.0 0.0 0.05 0.30 0.30 68 1006.0
20260506031036 14 177 0.0 0.0 0.08 0.30 0.30 68 1006.1
20260506030533 14 188 0.0 0.0 0.10 0.30 0.30 67 1006.3
20260506030033 14 174 0.0 0.0 0.10 0.30 0.30 67 1006.4
20260506025533 15 197 0.0 0.0 0.10 0.30 0.30 67 1006.6
20260506025031 15 192 0.0 0.0 0.10 0.30 0.30 67 1006.6
20260506024531 15 198 0.0 0.0 0.10 0.30 0.30 66 1006.6
20260506024029 15 213 0.0 0.0 0.10 0.30 0.30 66 1006.6
20260506023533 15 171 0.0 0.0 0.10 0.30 0.30 66 1006.6
20260506023028 15 196 0.0 0.0 0.10 0.30 0.30 65 1006.7
20260506022528 15 199 0.0 0.0 0.08 0.25 0.25 65 1006.8
20260506022027 15 192 0.0 0.0 0.08 0.25 0.25 65 1006.9
20260506021529 15 207 0.0 0.0 0.08 0.25 0.25 65 1006.8
20260506021028 15 203 0.0 0.0 0.05 0.23 0.23 65 1006.9
20260506020526 15 215 0.0 0.0 0.03 0.20 0.20 65 1006.9
20260506020049 15 210 0.0 0.0 0.05 0.20 0.20 64 1006.9
20260506015525 15 205 0.0 0.0 0.05 0.20 0.20 64 1006.8
20260506015025 15 194 0.0 0.0 0.05 0.20 0.20 64 1006.8
20260506014525 15 202 0.0 0.0 0.08 0.20 0.20 64 1006.9
20260506014024 15 199 0.0 0.0 0.08 0.20 0.20 64 1006.8
20260506013525 15 211 0.0 0.0 0.08 0.20 0.20 64 1006.8
20260506013023 16 229 0.0 0.0 0.08 0.20 0.20 63 1006.8
20260506012523 16 224 0.0 0.0 0.05 0.18 0.18 63 1006.8
20260506012024 16 226 0.0 0.0 0.05 0.18 0.18 63 1006.8
20260506011526 16 222 0.0 0.0 0.05 0.18 0.18 63 1006.7
20260506011023 16 186 0.0 0.0 0.05 0.18 0.18 63 1006.6
20260506010523 16 219 0.0 0.0 0.05 0.18 0.18 63 1006.5
20260506010028 16 206 0.0 0.0 0.03 0.15 0.15 63 1006.7
20260506005523 16 265 0.0 0.0 0.03 0.15 0.15 63 1006.6
20260506005022 16 307 0.0 0.0 0.03 0.15 0.15 63 1006.4
20260506004525 16 307 0.0 0.0 0.00 0.13 0.13 63 1006.3
20260506004025 16 307 0.0 0.0 0.00 0.13 0.13 63 1006.3
20260506003525 16 307 0.0 0.0 0.00 0.13 0.13 63 1006.2
20260506003021 16 307 0.0 0.0 0.00 0.13 0.13 63 1006.3
20260506002521 16 307 0.0 0.0 0.03 0.13 0.13 62 1006.2
20260506002022 16 307 0.0 0.0 0.03 0.13 0.13 62 1006.1
20260506001521 16 307 0.0 0.0 0.05 0.13 0.13 62 1006.2
20260506001021 16 307 0.0 0.0 0.05 0.13 0.13 62 1006.1
20260506000520 16 307 0.0 0.0 0.05 0.13 0.13 62 1006.1
20260506000034 16 307 0.0 0.0 0.05 0.13 0.13 62 1006.2
20260505235520 16 275 0.0 0.0 0.05 0.13 0.13 62 1006.4
20260505235020 16 275 0.0 0.0 0.08 0.13 0.13 62 1006.2
20260505234521 16 275 0.0 0.0 0.10 0.13 0.13 62 1006.3
20260505234018 16 275 0.0 0.0 0.10 0.13 0.13 62 1006.3
20260505233519 16 275 0.0 0.0 0.10 0.13 0.13 62 1006.2
20260505233018 16 275 0.0 0.0 0.10 0.13 0.13 62 1006.2
20260505232520 16 275 0.0 0.0 0.08 0.10 0.10 62 1006.2
20260505232019 16 275 0.0 0.0 0.08 0.10 0.10 62 1006.2
20260505231519 16 275 0.0 0.0 0.05 0.08 0.08 62 1006.4
20260505231018 16 275 0.0 0.0 0.05 0.08 0.08 63 1006.6
20260505230517 17 246 0.0 0.0 0.05 0.08 0.08 62 1006.4
20260505230030 18 237 0.0 0.0 0.05 0.08 0.08 58 1006.2
20260505225518 18 238 0.0 0.0 0.05 0.08 0.08 58 1006.2
20260505225018 18 238 0.0 0.0 0.03 0.05 0.05 57 1006.5
20260505224517 18 238 0.0 0.0 0.00 0.03 0.03 57 1006.6
20260505224015 18 238 0.0 0.0 0.00 0.03 0.03 56 1006.5
20260505223516 18 209 0.0 0.0 0.03 0.03 0.03 55 1006.4
20260505223015 19 229 0.0 0.0 0.03 0.03 0.03 53 1006.5
20260505222518 19 208 0.0 0.0 0.03 0.03 0.03 52 1006.4
20260505222016 19 207 0.0 0.0 0.03 0.03 0.03 51 1006.2
20260505221515 19 203 0.0 0.0 0.03 0.03 0.03 51 1006.1
20260505221015 19 186 0.0 0.0 0.03 0.03 0.03 50 1006.4
20260505220516 20 217 0.0 0.0 0.03 0.03 0.03 49 1006.3
20260505220014 20 223 0.0 0.0 0.03 0.03 0.03 49 1006.1
20260505215518 20 191 0.0 0.0 0.03 0.03 0.03 47 1006.2
20260505215014 20 187 0.0 0.0 0.03 0.03 0.03 45 1006.3
20260505214514 20 194 0.0 0.0 0.03 0.03 0.03 45 1006.2
20260505214014 20 234 0.0 0.0 0.03 0.03 0.03 46 1006.1
20260505213512 20 215 0.0 0.0 0.00 0.00 0.00 46 1006.0
20260505213013 20 194 0.0 0.0 0.00 0.00 0.00 48 1006.3
20260505212511 20 219 0.0 1.6 0.00 0.00 0.00 49 1006.2
20260505212010 20 156 0.0 1.6 0.00 0.00 0.00 49 1006.1
20260505211515 20 188 0.0 0.0 0.00 0.00 0.00 49 1006.3
20260505211009 20 179 0.0 0.0 0.00 0.00 0.00 48 1006.3
20260505210508 20 178 0.0 0.0 0.00 0.00 0.00 49 1006.5
20260505210008 20 175 0.0 0.0 0.00 0.00 0.00 49 1006.5
20260505205513 20 205 0.0 0.0 0.00 0.00 0.00 49 1006.6
20260505205006 20 188 0.0 0.0 0.00 0.00 0.00 49 1006.6
20260505204506 20 178 0.0 1.6 0.00 0.00 0.00 49 1006.7
20260505204003 20 187 0.0 0.0 0.00 0.00 0.00 49 1006.8
20260505203503 20 192 0.0 0.0 0.00 0.00 0.00 50 1006.9
20260505203003 20 187 0.0 0.0 0.00 0.00 0.00 53 1007.0
20260505202500 19 200 0.0 0.0 0.00 0.00 0.00 54 1007.1
20260505202102 19 221 0.0 0.0 0.00 0.00 0.00 54 1007.2
20260505201601 19 200 0.0 0.0 0.00 0.00 0.00 55 1007.3
20260505201500 19 196 0.0 0.0 0.00 0.00 0.00 54 1007.3
20260505201100 19 195 0.0 0.0 0.00 0.00 0.00 55 1007.4
20260505200600 19 212 0.0 0.0 0.00 0.00 0.00 55 1007.4
20260505200100 19 210 0.0 0.0 0.00 0.00 0.00 56 1007.4
20260505195559 19 210 0.0 0.0 0.00 0.00 0.00 56 1007.5
20260505195059 19 198 0.0 0.0 0.00 0.00 0.00 56 1007.6
20260505194559 19 205 0.0 0.0 0.00 0.00 0.00 57 1007.8
20260505194058 19 217 0.0 0.0 0.00 0.00 0.00 56 1007.8
20260505193558 19 208 0.0 0.0 0.00 0.00 0.00 57 1008.0
20260505193100 19 225 0.0 0.0 0.00 0.00 0.00 57 1008.0
20260505192600 19 232 0.0 0.0 0.00 0.00 0.00 57 1008.1
20260505192058 19 202 0.0 0.0 0.00 0.00 0.00 58 1008.1
20260505191604 18 228 0.0 0.0 0.00 0.00 0.00 59 1008.2
20260505191058 18 219 0.0 0.0 0.00 0.00 0.00 59 1008.3
20260505190601 18 202 0.0 0.0 0.00 0.00 0.00 60 1008.4
20260505190109 18 224 0.0 0.0 0.00 0.00 0.00 61 1008.4
20260505185557 18 216 0.0 1.6 0.00 0.00 0.00 60 1008.3